Starlink 6334

operational
NORAD ID: 57238 Int'l Des: 2023-094 Owner: SPXS Country: US Constellation: starlink
LEOCIRCULAR

关于 Starlink 6334

正在加载描述...

实时位置

正在加载3D地球...

即将过境

高度历史

Altitude vs Time

uPlot chart will show altitude changes over time

两行轨道根数

1 57238U 23094W 25351.71496478 -.00000060 00000-0 10652-4 0 9990
2 57238 43.0040 103.1989 0001293 268.0110 92.0584 15.02534125134938
Epoch: Dec 17, 2025 • Age: 26 hours

当前状态

高度 562.6 km
速度 7.59 km/s
星下点 40.80°N, 164.77°W
发射日期 Jul 7, 2023
运行时间 2.4 years
类型 internet

技术详情

分类 Payload
质量 305.00 kg
干质量 290.00 kg
总质量 305.00 kg
长度 0.20 m
直径 2.80 m
跨度 9.00 m
形状 Box + pan
制造商 SPXS
平台类型 Starlink
阶段状态 In Orbit
所有者/国家 SPXS/US

大型星座

Loading constellations...